Location: Harwich
(41.7160°N, 69.9939°W)
Time: 13:53:15
(UTC+02:00)

BlueWalker 3 - Pass Details

Date: 25 February 2024
Orbit: 485 x 495 km, 53.2° (Epoch: 23 April)

Event Time Altitude Azimuth Distance (km) Brightness Sun altitude
Rises 01:52:50 0° 309° (NW) 2,559 6.5 -28.4°
Reaches altitude 10° 01:55:38 10° 331° (NNW) 1,674 5.1 -28.9°
Enters shadow 01:56:19 13° 340° (NNW) 1,515 4.7 -29.0°
